Content
SEND FEEDBACK

Daily
Averages
Monthly
Summary
United States of America

ASATDAS, GUAM


Home > North America > United States > Guam
Elevation: 186 meters     Latitude: 13 35N     Longitude: 144 56E

WEATHER
 
SELECT A DAY
Number of Records: 209,230;   Date Range: 1/1/95 - 9/3/14
 
SHARE

PRINT THIS DATA

[ ← Previous Day ]
WEATHER ALMANAC - 23 JANUARY, 2013
[ Next Day → ]
[ °F ]   °C
Weather ElementAverageHighLow
Temperature26.5 °C29.4 °C (10:54 am)23.9 °C (11:54 pm)
Dewpoint20.7 °C22.2 °C (1:54 am)19.4 °C (4:54 pm)
Humidity71.1 %85 % (5:54 am)57 % (12:54 pm)
Barometer1012.2 hPa1014.2 hPa (8:54 am)1010.2 hPa (2:54 pm)
Wind Speed17.1 km/h25.9 km/h (10:54 am)
Wind Gust33.3 km/h (1:54 pm)
Weather ElementAverage
Visibility16.1 km
Wind DirectionENE (57.8 °)

Weather ElementTotal
Precipitation---
Cooling Degree Days8.3 (Base 18.3)
Growing Degree Days16.7 (Base 10)
Averaged from 23 records on 23 January, 2013
WEATHER CONDITIONS BREAKOUT
WIND DIRECTION BREAKOUT
WEATHER BY HOUR - 23 JANUARY, 2013
[ °F ]   °C
Local TimeTemperatureDewpointHumidityBarometerVisibilityWind DirectionWind SpeedGust SpeedPrecipitationEventsConditions
1:54 AM25.6 °C22.2 °C81 %1012.2 hPa16.1 kmENE (70°)18.5 km/h0 mmRainLight Rain
2:54 AM25 °C21.7 °C82 %1011.9 hPa16.1 kmENE (60°)16.7 km/h0 mmClear
3:54 AM25 °C21.1 °C79 %1011.5 hPa16.1 kmENE (70°)16.7 km/hClear
4:54 AM24.4 °C21.1 °C82 %1011.9 hPa16.1 kmENE (60°)11.1 km/hClear
5:54 AM24.4 °C21.7 °C85 %1011.9 hPa16.1 kmENE (60°)11.1 km/hScattered Clouds
6:54 AM25 °C21.7 °C82 %1012.9 hPa16.1 kmENE (60°)14.8 km/hMostly Cloudy
7:54 AM25.6 °C21.7 °C79 %1013.5 hPa16.1 kmENE (60°)16.7 km/hScattered Clouds
8:54 AM27.2 °C21.1 °C69 %1014.2 hPa16.1 kmENE (60°)24.1 km/h0 mmPartly Cloudy
9:54 AM27.2 °C20 °C65 %1014.2 hPa16.1 kmENE (70°)20.4 km/hPartly Cloudy
10:54 AM29.4 °C20.6 °C59 %1013.5 hPa16.1 kmNE (40°)25.9 km/hPartly Cloudy
11:54 AM29.4 °C20.6 °C59 %1012.9 hPa16.1 kmNE (40°)24.1 km/hScattered Clouds
12:54 PM29.4 °C20 °C57 %1011.9 hPa16.1 kmNE (50°)25.9 km/hPartly Cloudy
1:54 PM28.9 °C20 °C58 %1010.8 hPa16.1 kmNE (40°)24.1 km/h33.3 km/hPartly Cloudy
2:54 PM29.4 °C20.6 °C59 %1010.2 hPa16.1 kmNE (50°)20.4 km/hScattered Clouds
3:54 PM28.3 °C20 °C60 %1010.2 hPa16.1 kmENE (60°)20.4 km/h33.3 km/hScattered Clouds
4:54 PM28.3 °C19.4 °C58 %1010.5 hPa16.1 kmNE (40°)24.1 km/hClear
5:54 PM26.7 °C20 °C67 %1011.2 hPa16.1 kmENE (60°)14.8 km/hClear
6:54 PM25.6 °C20 °C71 %1011.5 hPa16.1 kmEast (80°)11.1 km/hClear
7:54 PM25.6 °C20.6 °C74 %1012.2 hPa16.1 kmENE (60°)14.8 km/hClear
8:54 PM25.6 °C20.6 °C74 %1012.9 hPa16.1 kmENE (70°)13 km/hClear
9:54 PM25.6 °C20.6 °C74 %1012.9 hPa16.1 kmENE (60°)5.6 km/hPartly Cloudy
10:54 PM24.4 °C20.6 °C79 %1012.9 hPa16.1 kmENE (60°)9.3 km/hClear
11:54 PM23.9 °C20.6 °C82 %1012.9 hPa16.1 kmNE (50°)9.3 km/hClear
Hourly data recorded from PGUM, located 0 kilometers away from Asatdas, Guam







STORIES FROM OUR PARTNERS